Regional Weather Roundup
Issued by NWS

Home | Current Version | Previous Version | Graphics & Text | Print | Product List | Glossary On
Versions: 1 2 3 4 5 6 7 8 9 10 11 12 13 14 15 16 17 18 19 20 21 22 23 24 25 26 27 28 29 30 31 32 33 34 35 36 37 38 39 40 41 42 43 44 45 46 47 48 49 50
000
ASUS43 KIND 282259
RWRIN

WEATHER ROUNDUP FOR INDIANA
NATIONAL WEATHER SERVICE INDIANAPOLIS IN
700 PM EDT MON JUL 28 2014

NOTE: "FAIR" INDICATES FEW OR NO CLOUDS BELOW 12,000 FEET WITH NO
SIGNIFICANT WEATHER AND/OR OBSTRUCTIONS TO VISIBILITY.

* - STATION DOES NOT REPORT WEATHER SUCH AS PRECIPITATION OR FOG.

+ - STATION NOT QUALITY CONTROLLED BY THE NATIONAL WEATHER SERVICE.
    USE DATA WITH CAUTION...ESPECIALLY DEWPOINT AND RELATIVE
    HUMIDITY OBSERVATIONS.

INZ001>003-010>013-019-020-290000-
NORTHWEST INDIANA

CITY           SKY/WX    TMP DP  RH WIND       PRES   REMARKS
GARY /AIRPORT/ MOSUNNY   66  50  55 N9G21     30.10F
VALPARAISO     SUNNY     63  48  58 N12G24    30.07F

$$

LMZ046-743>745-290000-
SOUTHERN LAKE MICHIGAN

STATION/POSITION TIME  TEMP WIND        PRES
                       AIR  DIR/SP/G
                 (UTC) (F)  (DEG/KT/KT) (MB)
MICHIGAN CITY    2200   63  340/ 25/ 29   N/A

$$

INZ004-005-014>016-021>024-290000-
NORTH CENTRAL INDIANA

CITY           SKY/WX    TMP DP  RH WIND       PRES   REMARKS
ELKHART        SUNNY     61  48  63 NW9       30.05R
GOSHEN         SUNNY     61  48  62 NW10      30.03S
SOUTH BEND     SUNNY     62  48  60 N15       30.05F
WARSAW +       PTSUNNY   61  48  63 NW9G18    30.03S

$$

INZ006>009-017-018-025>027-290000-
NORTHEAST INDIANA

CITY           SKY/WX    TMP DP  RH WIND       PRES   REMARKS
ANGOLA *+      SUNNY     64  55  72 NW9       30.00S
FORT WAYNE     MOSUNNY   65  52  62 NW9       30.00S

$$

INZ028-029-035-036-043>045-051>053-290000-
WEST CENTRAL INDIANA

CITY           SKY/WX    TMP DP  RH WIND       PRES   REMARKS
GREENCASTLE +  PTSUNNY   68  55  64 N13G20    30.05S
LAFAYETTE      SUNNY     66  45  46 N18G28    30.07S
TERRE HAUTE    MOSUNNY   71  55  56 N9G18     30.05S

$$

INZ030>032-037>040-046>048-054>057-064-065-290000-
CENTRAL INDIANA

CITY           SKY/WX    TMP DP  RH WIND       PRES   REMARKS
COLUMBUS       MOSUNNY   72  57  60 NW16      30.02R
INDIANAPOLIS   MOSUNNY   67  52  58 NW16      30.03S
-EAGLE CREEK   SUNNY     68  50  52 NW16G23   30.03S
KOKOMO *+      SUNNY     64  50  59 NW17      30.03S
MT COMFORT *+  SUNNY     68  55  64 NW13      30.03F
SHELBYVILLE    SUNNY     70  54  56 NW14G22   30.02R

$$

INZ033-034-041-042-049-050-058-059-290000-
EAST CENTRAL INDIANA

CITY           SKY/WX    TMP DP  RH WIND       PRES   REMARKS
MUNCIE         PTSUNNY   65  52  62 NW12      30.01S

$$

INZ060-061-067>069-081>083-085>088-290000-
SOUTHWEST INDIANA

CITY           SKY/WX    TMP DP  RH WIND       PRES   REMARKS
EVANSVILLE     SUNNY     75  56  51 N10G20    30.03S

$$

INZ062-063-066-070>080-084-089>092-290000-
SOUTH CENTRAL AND SOUTHEAST INDIANA

CITY           SKY/WX    TMP DP  RH WIND       PRES   REMARKS
BLOOMINGTON    MOSUNNY   71  54  54 N5        30.03S

$$



USA.gov is the U.S. government's official web portal to all federal, state and local government web resources and services.